[Iaude] MPEC G124: 2024 GC2 [a=1.31,e=0.27,i=28.0,H=25.0]

mpec at cfa.harvard.edu mpec at cfa.harvard.edu
Wed Apr 10 03:37:40 EDT 2024


M.P.E.C. 2024-G124                               Issued 2024 April 10, 07:36 UT

     The Minor Planet Electronic Circulars contain information on unusual
         minor planets, routine data on comets and natural satellites,
         and occasional editorial announcements.  They are published
    on behalf of Division F of the International Astronomical Union by the
          Minor Planet Center, Smithsonian Astrophysical Observatory,
                          Cambridge, MA 02138, U.S.A.
			  
             Prepared using the Tamkin Foundation Computer Network

                              MPC at CFA.HARVARD.EDU
            URL https://www.minorplanetcenter.net/    ISSN 1523-6714

                                    2024 GC2                                    


Observations:
     K24G02C*1C2024 04 07.38864114 26 15.803-01 10 31.84         21.49GVEG124G96
     K24G02C 1C2024 04 07.39893914 26 11.684-01 12 31.32         20.74GVEG124G96
     K24G02C 1C2024 04 07.40407514 26 09.654-01 13 30.94         20.61GVEG124G96
     K24G02C KC2024 04 07.41742714 26 04.373-01 16 05.70         21.44GVEG124I52
     K24G02C KC2024 04 07.41871214 26 03.822-01 16 20.03         20.78GVEG124I52
     K24G02C KC2024 04 07.42000314 26 03.332-01 16 35.15         21.32GVEG124I52
     K24G02C KC2024 04 07.42128114 26 02.854-01 16 50.09         21.77GVEG124I52
     K24G02C KC2024 04 07.46971 14 25 43.71 -01 26 13.8          21.0 RVEG124691
     K24G02C KC2024 04 07.48071 14 25 39.36 -01 28 21.6          21.9 RVEG124691
     K24G02C KC2024 04 08.24307314 20 45.91 -04 03 47.3          20.7 GVEG124H21
     K24G02C KC2024 04 08.24866814 20 43.49 -04 04 58.9          20.9 GVEG124H21
     K24G02C KC2024 04 08.25463314 20 40.85 -04 06 15.4          20.9 GVEG124H21
     K24G02C KC2024 04 08.26143714 20 37.90 -04 07 42.3          20.6 GVEG124H21
     K24G02C  C2024 04 08.37818414 19 47.718-04 32 39.99         20.8 GVEG124H01
     K24G02C  C2024 04 08.38249914 19 45.785-04 33 36.07         21.2 GVEG124H01
     K24G02C  C2024 04 08.39250414 19 41.301-04 35 45.82         21.1 GVEG124H01
     K24G02C  C2024 04 08.39921614 19 38.299-04 37 12.94         20.9 GVEG124H01
     K24G02C  C2024 04 10.27993114 04 45.763-12 09 21.42         20.5 GVEG124H01
     K24G02C  C2024 04 10.28455514 04 43.123-12 10 35.16         20.3 GVEG124H01
     K24G02C  C2024 04 10.29776314 04 35.544-12 14 05.13         20.4 GVEG124H01
     K24G02C  C2024 04 10.30427714 04 31.795-12 15 48.87         20.3 GVEG124H01

Observer details:
691 Steward Observatory, Kitt Peak-Spacewatch.  Observer C. Lejoly.  0.9-m f/3
    reflector + CCD.
G96 Mt. Lemmon Survey.  Observer H. Groeller.  Measurers T. Beuden, V. F.
    Carvajal, D. Fay, J. B. Fazekas, D. C. Fuls, A. R. Gibbs, A. D. Grauer, H.
    Groeller, J. K. Hogan, R. A. Kowalski, S. M. Larson, G. J. Leonard, D.
    Rankin, R. L. Seaman, F. C. Shelly, K. W. Wierzchos.  1.5-m reflector +
    10K CCD.
H01 Magdalena Ridge Observatory, Socorro.  Observers W. H. Ryan, E. V. Ryan.
    Measurer W. H. Ryan.  2.4-m f/8.9 Ritchey-Chretien + CCD.
H21 Astronomical Research Observatory, Westfield.  Observer R. Holmes.
    Measurers T. Linder, R. Holmes, L. Horn.  0.76-m f/3.0 astrograph + CCD.
I52 Steward Observatory, Mt. Lemmon Station.  Observer J. K. Hogan.  Measurers
    T. Beuden, V. F. Carvajal, D. Fay, J. B. Fazekas, D. C. Fuls, A. R. Gibbs,
    A. D. Grauer, H. Groeller, J. K. Hogan, R. A. Kowalski, S. M. Larson, G.
    J. Leonard, D. Rankin, R. L. Seaman, F. C. Shelly, K. W. Wierzchos.  1.0-m
    prime focus + CCD.

Orbital elements:
2024 GC2                                                 Earth MOID = 0.0820 AU
Epoch 2024 Mar. 31.0 TT = JDT 2460400.5                 MPC                     
M 313.18683              (2000.0)            P               Q                  
n   0.65711206     Peri.  245.59443     -0.08616040     +0.98100439             
a   1.3103172      Node    21.72887     -0.65558372     +0.07553224             
e   0.2686174      Incl.   27.99923     -0.75019089     -0.17867643             
P   1.50           H   25.02          G   0.15           U   8                  
Residuals in seconds of arc
240407 G96  0.9+  0.3+    240407 691  0.7-  1.0-    240408 H01  0.1+  0.1+
240407 G96  0.2+  0.1-    240407 691  1.0-  0.5-    240408 H01  0.1-  0.1+
240407 G96  0.2+  0.3-    240408 H21  0.1-  0.1+    240408 H01  0.1-  0.1+
240407 I52  0.2+  0.3-    240408 H21  0.2+  0.0     240410 H01  0.2+  0.1+
240407 I52  0.5-  0.2+    240408 H21  0.3-  0.2-    240410 H01  0.2+  0.1-
240407 I52  0.2-  0.1+    240408 H21  0.1+  0.0     240410 H01  0.1-  0.0
240407 I52  0.2+  0.0     240408 H01  0.2+  0.2+    240410 H01  0.2-  0.0

Ephemeris:
2024 GC2                 a,e,i = 1.31, 0.27, 28                  q = 0.9583
Date    TT    R. A. (2000) Decl.     Delta      r    Elong.  Phase     V
2024 03 11    15 10 55.6 +26 35 26   0.3561  1.2181   121.5    44.0    24.9
...
2024 03 26    15 05 10.8 +19 52 25   0.2132  1.1556   133.9    38.5    23.5
...
2024 04 03    14 46 56.5 +09 47 34   0.1437  1.1232   147.0    29.0    22.3
...
2024 04 09    14 15 18.2 -06 50 45   0.1016  1.0996   164.1    14.5    21.1
2024 04 10    14 07 12.7 -10 55 04   0.09625 1.0958   166.8    12.1    20.9
2024 04 11    13 57 56.0 -15 24 49   0.09164 1.0920   168.0    11.0    20.7
...
2024 04 17    12 23 25.5 -46 43 07   0.08403 1.0697   140.2    36.9    21.3
...
2024 04 25    08 29 12.1 -63 45 50   0.1225  1.0421   103.8    69.6    23.0
...
2024 05 10    05 40 38.4 -56 20 23   0.2358  0.9986    80.6    86.0    24.9

A. U. Tomatic                (C) Copyright 2024 MPC           M.P.E.C. 2024-G124





More information about the Iaude mailing list